Track LEMUR 2 ARTFISCHER now! 10-day predictions LEMUR 2 ARTFISCHER is classified as:
1 42881U 17042BJ 21112.52149893 .00008276 00000-0 17936-3 0 9997 2 42881 96.8538 328.1325 0008333 277.3705 82.6598 15.44618667211691